Location: Coventry Hills
(40.8529°N, 81.5073°W)
Time: 00:15:19
(UTC+00:00)

Daily predictions for brighter satellites

Satellite Brightness Start Highest point End
(mag) Time Altitude Azimuth Time Altitude Azimuth Time Altitude Azimuth
Cosmos 1980 Rocket 2.2 00:03:24 10° SSW 00:09:03 89° ESE 00:14:47 10° NNE
ERS-2 2.0 00:05:47 10° NNE 00:09:26 71° ESE 00:13:03 10° S
Cosmos 44 3.5 00:04:24 10° NNW 00:09:53 77° ENE 00:15:14 10° SE
SJ-11-01 4.2 00:07:23 10° SSE 00:12:02 75° ENE 00:16:43 10° N
Cosmos 1707 Rocket 4.0 00:08:05 10° N 00:12:13 38° ENE 00:16:17 10° SSE
Cosmos 1302 Rocket 4.4 00:07:49 10° S 00:12:37 39° ESE 00:17:26 10° NE
Cosmos 1633 Rocket 3.7 00:10:07 10° SSE 00:14:03 33° E 00:17:59 10° NNE
RESURS DK-1 4.5 00:10:30 10° NW 00:14:09 30° WSW 00:17:45 10° S
SAR-Lupe-4 3.4 00:14:03 10° NNE 00:17:39 81° ESE 00:21:13 10° S
Cosmos 2322 Rocket 3.2 00:14:43 10° SSE 00:18:56 22° E 00:21:05 18° ENE
FALCON 9 DEB 4.2 00:19:06 10° WSW 00:22:05 37° NNW 00:24:24 15° NNE
Cosmos 1867 3.7 00:17:12 10° SW 00:22:38 80° WNW 00:28:08 10° NNE
USA 305 3.6 00:19:48 10° WSW 00:23:59 51° NW 00:27:37 13° NE
Cosmos 2082 4.3 00:19:14 10° NNW 00:24:45 58° WSW 00:30:13 10° S
PSLV R/B 4.4 00:21:27 10° N 00:25:32 64° WNW 00:29:33 10° SSW
CZ-4 R/B 2.2 00:25:03 10° S 00:28:47 50° W 00:32:32 10° NNW
USA 307 3.7 00:27:48 10° WSW 00:31:56 47° NW 00:35:12 15° NE
ERBS 3.0 00:29:39 10° SSW 00:32:35 32° SE 00:32:35 32° SE
Meteor 1-20 Rocket 4.1 00:27:35 10° S 00:32:57 63° E 00:38:22 10° NNE
Cosmos 1697 Rocket 4.5 00:28:31 10° WSW 00:33:32 32° WNW 00:38:34 10° N
USA 306 4.0 00:34:10 10° WSW 00:38:14 41° NNW 00:41:15 16° NNE
SL-16 R/B 2.5 00:33:02 10° S 00:38:19 42° ESE 00:43:30 11° NE
USA 308 4.0 00:38:12 10° WSW 00:42:15 40° NNW 00:45:05 18° NNE
Ariane Rocket 3.7 00:43:57 31° ENE 00:44:16 31° ENE 00:48:44 10° N
SeaSat 1 3.7 00:40:42 10° NNE 00:45:18 40° WNW 00:49:53 10° SW
Cosmos 1470 Rocket 3.9 00:42:04 10° SSE 00:46:16 41° E 00:50:30 10° NNE
HJ-1C 4.3 00:43:11 10° S 00:46:26 50° W 00:49:41 10° NNW
Cosmos 1689 Rocket 4.3 00:44:24 10° NNW 00:46:52 26° WNW 00:49:21 10° SW
SJ-6B 3.7 00:51:03 35° NE 00:51:03 35° NE 00:54:05 10° N
DMSP B5D2-2 4.0 00:45:19 10° NNE 00:50:33 67° ESE 00:55:43 10° S
Abrixas rocket 3.6 00:49:35 10° SW 00:50:44 23° SW 00:50:44 23° SW
Cosmos 1271 Rocket 2.6 00:49:54 10° NNW 00:53:39 81° W 00:56:23 18° S
Cosmos 2327 Rocket 4.4 00:47:58 10° S 00:54:18 71° E 01:00:36 10° NNE
Cosmos 1602 3.6 00:53:26 10° S 00:57:16 87° E 01:01:12 10° N
USA 234 3.9 00:51:24 10° NE 00:57:40 53° NNW 01:03:58 10° WSW
Cosmos 2263 Rocket 2.0 00:52:25 10° NNW 00:58:02 81° ENE 01:01:16 26° SSE
Cosmos 2154 Rocket 3.9 00:54:58 10° S 01:01:12 79° E 01:07:26 10° N
Cosmos 1461 3.0 00:56:45 10° SSW 01:01:27 82° ESE 01:03:13 39° NE
SL-08 RB Rocket 4.1 00:57:55 10° S 01:02:20 61° W 01:06:49 10° NNW
GP-B 3.0 01:02:28 61° E 01:02:28 61° E 01:06:50 10° N
Okean 1 3.6 00:58:30 10° N 01:01:42 50° NNE 01:01:42 50° NNE
Nadezhda 3 Rocket 3.9 00:57:51 10° N 01:04:12 72° E 01:10:33 10° SSE
Meteor 1-14 Rocket 4.2 00:59:30 10° S 01:04:59 56° E 01:10:25 10° NNE
H-2A R/B 4.0 01:01:57 10° SSW 01:06:41 31° W 01:11:29 10° NNW
ARGOS 4.4 01:05:51 10° SSW 01:10:55 41° W 01:16:03 10° NNW
Cosmos 1610 Rocket 4.4 01:05:54 10° S 01:12:03 86° W 01:18:18 10° N
Cosmos 1862 Rocket 3.5 01:09:03 10° N 01:13:34 86° W 01:14:35 53° S
Meteor 2-4 Rocket 4.0 01:13:17 10° N 01:18:17 50° NE 01:18:17 50° NE
MetOp-A 4.1 01:17:36 24° S 01:20:54 80° WSW 01:26:18 10° NNW
CZ-2C R/B 4.0 01:19:54 10° N 01:25:03 40° WNW 01:30:04 10° SW
Meteor 1-18 Rocket 4.3 01:19:30 10° N 01:25:28 85° W 01:28:27 31° S
SL-4 R/B 4.2 01:24:02 10° NW 01:25:38 15° NNW 01:25:38 15° NNW
COSMOS 2455 4.0 01:21:51 10° NW 01:27:25 40° WSW 01:32:50 11° S
Lacrosse 5 rocket 3.6 01:29:13 10° WNW 01:32:24 20° WSW 01:33:43 18° SSW
Cosmos 1486 Rocket 4.0 01:27:07 10° NNW 01:31:57 74° N 01:31:57 74° N
Cosmos 1844 Rocket 4.0 01:30:55 10° N 01:33:48 26° NNE 01:33:48 26° NNE
Cosmos 2360 Rocket 4.4 01:31:48 10° S 01:32:13 12° S 01:32:13 12° S
Cosmos 2341 Rocket 3.9 01:39:58 10° S 01:46:21 88° WNW 01:52:41 10° N
Cosmos 962 Rocket 4.5 01:41:08 10° SSW 01:47:17 77° W 01:53:33 10° N
Cosmos 968 Rocket 4.4 01:54:49 10° NNW 01:59:26 47° W 01:59:26 47° W
Cosmos 2322 Rocket 2.9 01:57:10 10° SW 02:02:35 50° WNW 02:03:06 48° NW
SL-16 R/B 3.9 02:17:41 10° WSW 02:22:33 29° NW 02:25:36 18° N
Cosmos 2082 Rocket 3.5 08:55:33 37° NE 08:55:33 37° NE 08:59:10 10° NNE
Cosmos 1980 Rocket 3.3 09:02:29 40° NE 09:02:58 41° ENE 09:08:17 10° SE
USA 229 DEB 4.0 09:16:41 55° N 09:16:41 55° N 09:22:07 10° NNE
USA 229 4.0 09:16:46 55° N 09:16:46 55° N 09:22:13 10° NNE
Cosmos 1833 Rocket 4.2 09:19:26 27° N 09:19:26 27° N 09:22:04 10° NNE
CZ-2C R/B 4.0 09:23:47 10° NNE 09:26:01 27° N 09:26:01 27° N
NOSS 3-1 (A) 3.8 09:33:11 48° N 09:33:11 48° N 09:38:04 10° NNE
SL-16 R/B 4.5 09:27:50 10° N 09:32:09 22° NE 09:36:28 10° ESE
Cosmos 1048 Rocket 4.5 09:34:33 53° NNE 09:34:33 53° NNE 09:38:28 10° NNE
Lacrosse 5 4.2 09:34:27 13° N 09:34:39 13° N 09:36:52 10° NNE
Cosmos 494 Rocket 4.2 09:37:05 64° ESE 09:37:10 64° ESE 09:42:16 10° NNE
X-37B 3.7 09:40:27 15° ENE 09:40:27 15° ENE 09:41:12 10° ENE
ALOS 2.5 09:38:08 10° NNE 09:42:44 66° E 09:42:44 66° E
Cosmos 1553 Rocket 4.4 09:37:02 10° S 09:43:21 65° E 09:49:38 10° NNE
Nadezhda 2 Rocket 4.4 09:37:23 10° N 09:43:47 90° E 09:50:13 10° S
Cosmos 1484 Rocket 4.5 09:40:34 10° NNE 09:42:31 28° NE 09:42:31 28° NE
H-2A R/B 4.3 09:45:03 29° SW 09:53:46 45° S 09:59:38 10° ESE
Cosmos 1869 4.4 10:00:42 36° N 10:00:42 36° N 10:03:08 10° N
Cosmos 292 Rocket 3.6 09:59:12 81° WNW 09:59:22 84° WSW 10:04:10 10° SSE
ISS -2.0 10:02:06 29° NE 10:02:06 29° NE 10:03:58 10° NE
Cosmos 2221 3.7 09:56:37 10° SSE 10:00:45 43° E 10:04:55 10° NNE
H-2A R/B 2.0 10:03:22 10° SSE 10:07:44 82° ENE 10:12:03 10° NNW
Cosmos 2344 4.3 10:01:45 10° S 10:09:03 48° ESE 10:16:16 10° NE
Cosmos 1331 Rocket 4.0 10:06:41 10° NNW 10:11:54 78° ENE 10:17:02 10° SSE
Cosmos 2278 3.6 10:10:01 28° NW 10:12:58 60° WSW 10:18:34 10° S
CBERS 1 LM4 rocket 4.2 10:08:51 10° N 10:13:46 74° WNW 10:15:50 34° SSW
CZ-4B R/B 3.1 10:15:34 10° SE 10:18:29 32° ENE 10:21:22 10° N
SeaSat 1 2.4 10:13:47 10° SSE 10:18:37 58° WSW 10:20:53 30° NW
Meteor 1-27 4.4 10:22:23 35° WSW 10:24:08 47° WNW 10:29:31 10° N
S3M 3.8 10:20:22 10° S 10:26:28 85° W 10:32:38 10° N
Cosmos 2360 Rocket 4.2 10:26:05 10° N 10:30:54 28° NE 10:35:42 10° ESE
ATLAS CENTAUR R/B 2.3 10:29:37 10° NNW 10:33:27 48° NE 10:37:36 10° SE
CREW DRAGON DEMO-1 DEB 3.3 10:33:52 42° N 10:34:22 49° NNE 10:37:10 10° ESE
FENGYUN 3A 4.1 10:30:51 10° N 10:35:53 40° WNW 10:38:30 24° WSW
Cosmos 2082 Rocket 3.3 10:37:26 24° WNW 10:38:00 24° NW 10:42:38 10° N
Cosmos 1745 Rocket 3.9 10:31:48 10° N 10:38:03 75° W 10:44:20 10° S
Cosmos 1302 Rocket 4.3 10:35:11 10° NNW 10:40:27 72° ENE 10:45:42 10° SSE
Iridium 4 Rocket 4.3 10:43:05 27° W 10:43:53 28° W 10:48:08 10° NNW
COSMO-SKYMED 1 2.5 10:39:58 10° SSE 10:44:18 90° S 10:48:41 10° NNW
CZ-4B R/B 3.5 10:40:02 10° NNE 10:44:24 66° ESE 10:48:52 10° S
NOSS 2-2 (C) 2.9 10:44:15 30° SW 10:45:47 66° NW 10:49:26 10° NNE
ERS-2 3.9 10:42:55 10° SE 10:46:12 33° ENE 10:49:31 10° N
Cosmos 1980 Rocket 3.0 10:44:25 22° WNW 10:46:44 29° WSW 10:51:31 10° SSW
Meteor 1-4 Rocket 2.5 10:43:03 10° S 10:46:47 85° W 10:50:31 10° N
CSL-04 DEB 4.3 10:43:12 10° S 10:47:18 75° WSW 10:51:20 10° NNW
Cosmos 1862 3.2 10:44:41 10° N 10:48:45 77° W 10:52:47 10° S
Milstar 3 Cent rocket 4.2 10:47:18 10° SSW 10:50:04 15° SSE 10:53:12 10° ESE
Cosmos 1709 Rocket 4.2 10:45:04 10° N 10:51:27 80° E 10:57:50 10° S
Meteor 1-31 Rocket 3.0 10:48:40 10° N 10:52:24 44° WNW 10:56:06 10° SW
Cosmos 1743 Rocket 3.5 10:50:45 10° N 10:55:14 83° W 10:59:43 10° S
Cosmos 2322 Rocket 2.4 10:51:02 10° NNW 10:56:42 75° ENE 11:02:22 10° SSE
ADEOS 3.8 10:52:12 10° N 10:57:12 47° WNW 11:02:10 10° SW
Cosmos 1606 2.9 10:54:40 10° S 10:58:31 74° E 11:02:25 10° NNE
NOSS 2-2 (E) 3.8 11:00:09 23° W 11:01:42 34° NW 11:05:10 10° NNE
Cosmos 1689 Rocket 3.4 11:02:38 10° SE 11:05:17 40° ENE 11:07:58 10° N
CZ-2C R/B 4.1 11:02:30 10° SE 11:07:40 42° ENE 11:12:55 10° N
Lacrosse 4 Rocket 3.9 11:08:37 10° N 11:12:09 22° NE 11:15:37 10° ESE
Meteor 2-17 Rocket 4.4 11:07:06 10° N 11:13:11 86° W 11:19:13 10° S
PSLV R/B 4.0 11:10:06 10° SSE 11:14:18 86° ENE 11:18:32 10° NNW
X-37B 1.2 11:12:44 15° WNW 11:15:12 48° NNE 11:18:16 10° E
SL-16 R/B 2.2 11:11:06 10° NNW 11:16:41 60° WSW 11:22:14 10° S
Cosmos 2315 Rocket 4.0 11:12:55 10° SSW 11:19:05 64° W 11:25:16 10° N
Lacrosse 5 4.1 11:16:08 10° NNW 11:19:32 18° NNE 11:22:56 10° ENE
ALOS 4.0 11:17:20 10° NNW 11:19:38 14° WNW 11:21:15 12° W
Cosmos 2219 Rocket 4.3 11:17:24 10° N 11:22:10 27° NE 11:26:56 10° ESE
Cosmos 2237 4.4 11:17:41 10° NNW 11:23:27 83° ENE 11:29:09 10° SSE
Cosmos 1833 4.3 11:19:58 10° SSW 11:25:38 83° ESE 11:31:18 10° NNE
deb Chang Zheng 4 3.9 11:23:25 10° N 11:27:28 43° WNW 11:31:31 10° SW
NOAA 6 4.4 11:24:28 10° NNE 11:29:39 73° ESE 11:34:46 10° S
H-2A R/B 3.3 11:27:25 10° N 11:31:02 37° WNW 11:34:38 10° SW
CENTAUR R/B 4.3 11:24:51 10° NNW 11:32:30 43° NE 11:40:48 10° ESE
Cosmos 1500 Rocket 4.4 11:31:07 10° NNW 11:34:50 29° W 11:38:35 10° SSW
ISS -1.7 11:35:47 10° NW 11:38:01 16° NNW 11:40:16 10° NNE
MOS 1 Rocket 4.2 11:34:46 10° SSW 11:38:11 23° W 11:41:38 10° NW
Cosmos 2221 4.1 11:35:49 10° WSW 11:38:32 16° WNW 11:41:15 10° NNW
BREEZE M DEB (TANK) 4.2 11:35:44 10° NW 11:38:47 37° NNE 11:47:10 10° E
YAOGAN 6 2.9 11:35:35 10° N 11:38:56 40° WNW 11:42:14 10° SW
CZ-3 R/B 3.7 11:35:31 10° SW 11:42:24 19° S 11:46:07 10° SE
